Weather History for Rabat-Sale, Morocco

Change the Weather History Date:

Saturday, March 2, 2013

  Actual Average Record
Temperature  
Mean Temperature 55 °F -  
Max Temperature 68 °F 66 °F 73 °F (2001)
Min Temperature 42 °F 48 °F 33 °F (2011)
Degree Days  
Heating Degree Days 10    
Growing Degree Days 5 (Base 50)    
Moisture  
Dew Point 45 °F    
Average Humidity 73    
Maximum Humidity 93    
Minimum Humidity 40    
Precipitation  
Precipitation 0.00 in 0.08 in - ()
Sea Level Pressure  
Sea Level Pressure 29.84 in    
Wind  
Wind Speed 3 mph ()    
Max Wind Speed 10 mph    
Max Gust Speed 16 mph    
Visibility 5.3 miles    
Events      
Averages and records for this station are not official NWS values.
T = Trace of Precipitation, MM = Missing Value Source: Averaged Metar Reports

Daily Weather History Graph

Daily Weather History Graph

Search for Another Location

Airport:

Trip Planner

Search our weather history database for the weather conditions in past years. The results will help you decide how hot, cold, wet, or windy it might be!

Date:

Astronomy

Mar. 02, 2013 Rise Set
Actual Time 6:54 AM WET 6:24 PM WET
Civil Twilight 6:29 AM WET 6:49 PM WET
Nautical Twilight 6:00 AM WET 7:18 PM WET
Astronomical Twilight 5:31 AM WET 7:47 PM WET
Moon 11:31 PM WET (3/2) 9:28 AM WET (3/2)
Length of Visible Light 12h 20m
Length of Day
11h 29m
Waning Gibbous, 76% of the Moon is Illuminated
Mar 2
Waning Gibbous
Mar 4
Last Quarter
Mar 11
New
Mar 19
First Quarter
Mar 27
Full

Hourly Weather History & Observations

Time (WET) Temp. Dew Point Humidity Pressure Visibility Wind Dir Wind Speed Gust Speed Precip Events Conditions
12:00 AM 49 °F 42 °F 70% 29.94 in 5 mi ENE 8.1 mph - -   Partly Cloudy
12:00 AM 50.0 °F 42.8 °F 76% 29.92 in 5.0 mi ENE 8.1 mph - N/A   Scattered Clouds
12:30 AM 48.2 °F 42.8 °F 82% 29.92 in 5.0 mi ENE 5.8 mph - N/A   Scattered Clouds
1:00 AM 48.2 °F 42.8 °F 82% 29.92 in 5.0 mi Variable 1.2 mph - N/A   Scattered Clouds
1:30 AM 46.4 °F 41.0 °F 81% 29.92 in 5.0 mi Calm Calm - N/A   Scattered Clouds
2:00 AM 44.6 °F 41.0 °F 87% 29.89 in - Calm Calm - N/A   Unknown
2:30 AM 44.6 °F 42.8 °F 93% 29.89 in - Calm Calm - N/A   Unknown
3:00 AM 44.6 °F 41.0 °F 87% 29.86 in 5.0 mi Calm Calm - N/A   Scattered Clouds
3:30 AM 44.6 °F 41.0 °F 87% 29.86 in 5.0 mi Calm Calm - N/A   Scattered Clouds
4:00 AM 44.6 °F 41.0 °F 87% 29.83 in - ENE 2.3 mph - N/A   Unknown
4:30 AM 42.8 °F 41.0 °F 93% 29.83 in - Calm Calm - N/A   Unknown
5:00 AM 42.8 °F 41.0 °F 93% 29.86 in 5.0 mi Calm Calm - N/A   Scattered Clouds
5:30 AM 42.8 °F 41.0 °F 93% 29.83 in 5.0 mi Calm Calm - N/A   Scattered Clouds
6:00 AM 42.8 °F 41.0 °F 93% 29.83 in 5.0 mi Calm Calm - N/A   Scattered Clouds
6:30 AM 42.8 °F 41.0 °F 93% 29.83 in 5.0 mi Calm Calm - N/A   Scattered Clouds
7:00 AM 42.8 °F 41.0 °F 93% 29.83 in 5.0 mi Calm Calm - N/A   Mostly Cloudy
7:30 AM 42.8 °F 41.0 °F 93% 29.86 in 5.0 mi Calm Calm - N/A   Mostly Cloudy
8:00 AM 44.6 °F 42.8 °F 93% 29.86 in 5.0 mi Calm Calm - N/A   Mostly Cloudy
8:30 AM 46.4 °F 42.8 °F 87% 29.83 in 5.0 mi Calm Calm - N/A   Mostly Cloudy
9:00 AM 49 °F 44 °F 79% 29.87 in 5 mi Calm Calm - -   Scattered Clouds
9:00 AM 48.2 °F 44.6 °F 87% 29.86 in 5.0 mi Calm Calm - N/A   Mostly Cloudy
9:30 AM 51.8 °F 42.8 °F 71% 29.83 in 5.0 mi ENE 3.5 mph - N/A   Mostly Cloudy
10:00 AM 53.6 °F 41.0 °F 62% 29.83 in 5.0 mi NE 5.8 mph - N/A   Mostly Cloudy
10:30 AM 55.4 °F 42.8 °F 63% 29.83 in 5.0 mi ESE 4.6 mph 16.1 mph N/A   Mostly Cloudy
11:00 AM 57.2 °F 42.8 °F 59% 29.83 in 5.0 mi ENE 4.6 mph - N/A   Mostly Cloudy
11:30 AM 57.2 °F 42.8 °F 59% 29.80 in 5.0 mi NE 3.5 mph - N/A   Mostly Cloudy
12:00 PM 60 °F 43 °F 43% 29.83 in 5 mi Calm Calm - -   Scattered Clouds
12:00 PM 60.8 °F 42.8 °F 52% 29.83 in 5.0 mi Calm Calm - N/A   Mostly Cloudy
12:30 PM 60.8 °F 44.6 °F 55% 29.80 in 5.0 mi ENE 3.5 mph - N/A   Unknown
1:00 PM 62.6 °F 44.6 °F 52% 29.80 in 5.0 mi Calm Calm - N/A   Unknown
1:30 PM 64.4 °F 42.8 °F 45% 29.77 in 5.0 mi East 3.5 mph - N/A   Unknown
2:00 PM 68.0 °F 42.8 °F 40% 29.77 in 5.6 mi SE 3.5 mph - N/A   Unknown
2:30 PM 66.2 °F 42.8 °F 43% 29.77 in - SW 6.9 mph - N/A   Clear
3:00 PM 63 °F 48 °F 48% 29.80 in 6 mi West 8.1 mph - -   Scattered Clouds
3:00 PM 62.6 °F 48.2 °F 59% 29.80 in 6.2 mi West 9.2 mph - N/A   Mostly Cloudy
3:30 PM 60.8 °F 46.4 °F 59% 29.80 in 6.2 mi WNW 6.9 mph - N/A   Mostly Cloudy
4:00 PM 59.0 °F 48.2 °F 67% 29.77 in 6.2 mi North 4.6 mph - N/A   Mostly Cloudy
4:30 PM 60.8 °F 46.4 °F 59% 29.77 in 6.2 mi Calm Calm - N/A   Mostly Cloudy
5:00 PM 60.8 °F 46.4 °F 59% 29.80 in 6.2 mi West 6.9 mph - N/A   Mostly Cloudy
5:30 PM 59.0 °F 44.6 °F 59% 29.83 in 6.2 mi WSW 10.4 mph - N/A   Mostly Cloudy
6:00 PM 58 °F 46 °F 55% 29.85 in 6 mi WSW 10.4 mph - -   Partly Cloudy
6:00 PM 57.2 °F 46.4 °F 67% 29.83 in 6.2 mi WSW 10.4 mph - N/A   Mostly Cloudy
6:30 PM 57.2 °F 46.4 °F 67% 29.86 in 6.2 mi SW 6.9 mph - N/A   Mostly Cloudy
7:00 PM 57.2 °F 48.2 °F 72% 29.86 in 6.2 mi SSW 6.9 mph - N/A   Mostly Cloudy
7:30 PM 55.4 °F 48.2 °F 77% 29.83 in 6.2 mi South 3.5 mph - N/A   Mostly Cloudy
8:00 PM 55.4 °F 48.2 °F 77% 29.86 in 6.2 mi South 3.5 mph - N/A   Mostly Cloudy
8:30 PM 55.4 °F 50.0 °F 82% 29.86 in 6.2 mi Calm Calm - N/A   Mostly Cloudy
9:00 PM 55 °F 50 °F 78% 29.88 in 5 mi Calm Calm - -   Partly Cloudy
9:00 PM 55.4 °F 50.0 °F 82% 29.86 in 5.0 mi Calm Calm - N/A   Mostly Cloudy
9:30 PM 55.4 °F 51.8 °F 88% 29.83 in 5.0 mi Calm Calm - N/A   Mostly Cloudy
10:00 PM 57.2 °F 51.8 °F 82% 29.89 in 5.0 mi SSW 8.1 mph - N/A   Mostly Cloudy
10:30 PM 55.4 °F 50.0 °F 82% 29.86 in 5.0 mi Calm Calm - N/A   Mostly Cloudy
11:00 PM 55.4 °F 50.0 °F 82% 29.86 in 5.0 mi Calm Calm - N/A   Mostly Cloudy
11:30 PM 57.2 °F 50.0 °F 77% 29.89 in 5.0 mi SSW 5.8 mph - N/A   Mostly Cloudy